Regional Weather Roundup
Issued by NWS

Home | Current Version | Previous Version | Graphics & Text | Print | Product List | Glossary Off
Versions: 1 2 3 4 5 6 7 8 9 10 11 12 13 14 15 16 17 18 19 20 21 22 23 24 25 26 27 28 29 30 31 32 33 34 35 36 37 38 39 40 41 42 43 44 45 46 47 48 49 50

000
ASUS43 KMPX 110910
RWRMN
WEATHER ROUNDUP FOR MINNESOTA
NATIONAL WEATHER SERVICE TWIN CITIES/CHANHASSEN MN
300 AM CST SUN DEC 11 2016


NOTE: "FAIR" INDICATES FEW OR NO CLOUDS BELOW 12,000 FEET WITH NO
SIGNIFICANT WEATHER AND/OR OBSTRUCTIONS TO VISIBILITY. N/A MEANS
CURRENT SKY AND/OR WEATHER CONDITIONS ARE NOT AVAILABLE.

MNZ060>063-068>070-111000-
   Twin Cities Metro

CITY           SKY/WX    TMP DP  RH WIND       PRES   REMARKS
TWIN CITIES    LGT SNOW  16  11  80 E12       30.04F VSB 1   WCI   3
ST PAUL        LGT SNOW  16  13  88 E7        30.07F FOG     WCI   6
CRYSTAL        LGT SNOW  15  10  80 E7        30.04F WCI   5
BLAINE         LGT SNOW  16  12  86 E9        30.04F WCI   4
LAKEVILLE      LGT SNOW  14  12  92 E10       30.02F WCI   1
EDEN PRAIRIE   LGT SNOW  16  12  84 E8        30.02F FOG     WCI   5
SOUTH ST PAUL  LGT SNOW  17  13  86 E6        30.05F WCI   8
LAKE ELMO      LGT SNOW  18  14  86 E8        30.06F WCI   7
$$
MNZ001>005-007-008-013>017-022>024-027-028-111000-
   Northwest Minnesota

CITY           SKY/WX    TMP DP  RH WIND       PRES   REMARKS
BEMIDJI        CLOUDY     0  -4  85 E7        30.07F WCI -13
HALLOCK        CLOUDY    -4  -8  84 E9        30.16F WCI -20
ROSEAU         CLOUDY    -9 -17  70 E3        30.17F
WARROAD        CLOUDY     0  -4  85 E10       30.17F WCI -17
THIEF RVR FALL CLOUDY    -5  -8  87 E13       30.12F WCI -24
CROOKSTON      CLOUDY     1  -2  85 E12       30.12F WCI -15
FOSSTON        FLURRIES   0  -4  85 E9        30.07F WCI -16
DETROIT LAKES  CLOUDY     9   3  78 E6        30.02F WCI  -1
MOORHEAD       MIX PCPN   9   3  78 NE6       30.05F WCI  -1
PARK RAPIDS    CLOUDY     5  -2  72 E9        30.03F WCI  -9
$$
MNZ006-009>011-018-025>026-111000-
   North Central Minnesota

CITY           SKY/WX    TMP DP  RH WIND       PRES   REMARKS
BAUDETTE       CLOUDY    -8 -12  83 E6        30.15F WCI -21
INTL FALLS     CLOUDY    -7 -12  79 E6        30.17F WCI -20
WASKISH        CLOUDY    -8 -11  84 E5        30.13F WCI -19
BIG FORK       CLOUDY    -9 -15  77 CALM      30.12F
LONGVILLE      FLURRIES   1  -2  85 E3        30.08F
GRAND RAPIDS   CLOUDY    -3  -6  87 E5        30.11F WCI -13
CRANE LAKE     CLOUDY   -17 -20  83 CALM      30.22F
ORR            CLOUDY   -18 -24  76 CALM      30.12F
COOK           CLOUDY   -17 -20  83 CALM      30.14F
$$
MNZ012-019>021-037-111000-
   Northeast Minnesota

CITY           SKY/WX    TMP DP  RH WIND       PRES   REMARKS
DULUTH         FLURRIES   7   3  84 E3        30.11F
ELY            CLOUDY    -6  -9  84 CALM      30.16F
HIBBING        CLOUDY    -8 -11  86 CALM      30.12F
EVELETH        CLOUDY     0  -5  80 NE5       30.13F WCI -10
DULUTH HARBOR  CLOUDY    12   5  73 CALM      30.20F
TWO HARBORS    CLOUDY    10   7  85 N6        30.14F WCI   1
SILVER BAY     LGT SNOW   7   3  85 CALM      30.16S
GRAND MARAIS     N/A      9   0  67 N9        30.23F WCI  -4
G MARAIS ARPRT LGT SNOW  -2  -8  78 N6        30.12S WCI -14
$$
MNZ029>031-032-039>041-046>048-054>057-064-111000-
   West Central Minnesota

CITY           SKY/WX    TMP DP  RH WIND       PRES   REMARKS
FERGUS FALLS   LGT SNOW   9   5  85 E10       30.06S WCI  -6
WHEATON        LGT SNOW  14  12  92 E10       30.01R WCI   1
MORRIS         LGT SNOW  12   9  85 E18       29.95F WCI  -5
ALEXANDRIA     LGT SNOW  11   6  81 E15       29.98F WCI  -5
ELBOW LAKE     LGT SNOW  10   7  87 E13       29.99S WCI  -5
WADENA         FLURRIES   7   1  78 E9        30.01F WCI  -7
GLENWOOD       LGT SNOW  10   9  92 E17       29.97F WCI  -7
APPLETON       LGT SNOW  16  10  79 E17       29.94F VSB 1   WCI   0
BENSON         LGT SNOW  12   9  85 SE12      29.95F WCI  -2
ORTONVILLE     LGT SNOW  12   9  85 E12       29.95S WCI  -2
MADISON        LGT SNOW  16  14  93 E13       29.94F WCI   2
WILLMAR        LGT SNOW  14  10  85 E15       29.97F WCI  -1
$$
MNZ033>034-036-042>043-049>051-058-059-111000-
   Central Minnesota

CITY           SKY/WX    TMP DP  RH WIND       PRES   REMARKS
ST CLOUD       LGT SNOW  12   9  87 E8        30.04F FOG     WCI   0
PAYNESVILLE    LGT SNOW  12  11  97 E9        30.01F WCI   0
AITKIN         MIX PCPN   9   1  72 E7        30.06F WCI  -3
PINE RIVER     FLURRIES   3   0  85 E7        30.09F WCI  -9
BRAINERD       CLOUDY     8   3  80 E7        30.06F WCI  -3
LONG PRAIRIE   LGT SNOW  10   7  85 NE9       30.02F WCI  -2
LITTLE FALLS   LGT SNOW  12   9  85 E5        30.05F WCI   4
LITCHFIELD     LGT SNOW  14  10  85 E9        30.01F WCI   2
BUFFALO        LGT SNOW  14  10  87 NE6       30.05F WCI   5
MAPLE LAKE     LGT SNOW  15  12  90 E12       30.04F VSB 1   WCI   1
HUTCHINSON     LGT SNOW  15  13  90 E12       30.00F VSB 1   WCI   2
$$
MNZ037-044-045-052-053-111000-
   East Central Minnesota

CITY           SKY/WX    TMP DP  RH WIND       PRES   REMARKS
PRINCETON      LGT SNOW  12  10  92 NE6       30.05F WCI   3
MORA           FLURRIES  12   9  85 E5        30.10F WCI   4
CAMBRIDGE      LGT SNOW  16   7  67 NE6       30.06F WCI   7
RUSH CITY      CLOUDY    12   9  85 NE7       30.09F WCI   2
MOOSE LAKE     CLOUDY     9   3  78 E3        30.10F
HINCKLEY       FLURRIES  12   9  85 NE8       30.10F WCI   1
CLOQUET        CLOUDY   N/A N/A N/A NE5         N/A
MCGREGOR       CLOUDY     9   3  78 NE3       30.10F
$$
MNZ071>073-080-081-089-090-097-098-111000-
   Southwest Minnesota

CITY           SKY/WX    TMP DP  RH WIND       PRES   REMARKS
MONTEVIDEO     LGT SNOW  14  10  85 SE17      29.95F WCI  -3
GRANITE FALLS  LGT SNOW  16  13  89 E14G21    29.95F VSB 1   WCI   1
CANBY          LGT SNOW  14  12  91 CALM      29.93F VSB 1
MARSHALL       FLURRIES  14  11  87 E14       29.90F WCI  -1
REDWOOD FALLS  LGT SNOW  15  11  83 E10       29.95F VSB 3/4 WCI   2
OLIVIA         LGT SNOW  16  12  86 E10       29.96F VSB 3/4 WCI   3
PIPESTONE      CLOUDY    19  18  93 E12       29.82S WCI   7
WINDOM         MIX PCPN  19  18  93 MISG      29.88F
WORTHINGTON    CLOUDY    19  17  92 SE13      29.84F WCI   6
JACKSON        CLOUDY    19  18  93 SE14      29.86F WCI   6
TRACY          LGT SNOW  16  15  93 E10       29.90F WCI   4
SLAYTON        CLOUDY    18  16  93 E10       29.86F WCI   6
$$
MNZ065>067-074>077-082>085-091>093-111000-
   South Central Minnesota

CITY           SKY/WX    TMP DP  RH WIND       PRES   REMARKS
MANKATO        LGT SNOW  17  14  88 E13       29.97F FOG     WCI   4
NEW ULM        LGT SNOW  16  12  86 E12       29.95F VSB 1   WCI   3
ST JAMES       LGT SNOW  19  18  93 E8        29.93F WCI   9
FAIRMONT       FLURRIES  20  18  92 SE14      29.91F WCI   7
GLENCOE        LGT SNOW  16  15  95 E8        30.00S VSB 1   WCI   5
FARIBAULT      LGT SNOW  16  14  93 E7        30.00F VSB 1   WCI   6
OWATONNA       LGT SNOW  18  12  79 E12       29.97F WCI   5
WASECA         LGT SNOW  18  14  86 E13       29.98S VSB 1   WCI   4
ALBERT LEA     FLURRIES  25  21  86 SE15      29.95F WCI  12
$$
MNZ078>079-086>088-094>096-111000-
   Southeast Minnesota

CITY           SKY/WX    TMP DP  RH WIND       PRES   REMARKS
ROCHESTER      LGT SNOW  16  14  92 E13       29.98F VSB 3/4 WCI   2
RED WING       LGT SNOW  18  12  79 E8        30.05F WCI   7
STANTON        LGT SNOW  18  14  84 E10       30.01F WCI   6
DODGE CENTER   LGT SNOW  16  14  93 E12       29.97F WCI   3
WINONA         LGT SNOW  19  18  93 SE9       30.07F WCI   9
AUSTIN         LGT SNOW  19  18  93 SE10      29.96F WCI   8
PRESTON        LGT SNOW  18  15  91 SE9       29.99F VSB 1   WCI   6
$$
ABBREVIATIONS USED IN REMARKS
   TC - TEMPERATURES IN CELSIUS
  WCI - WIND CHILL INDEX
   HX - HEAT INDEX
  VSB - VISIBILITY
$$



USA.gov is the U.S. government's official web portal to all federal, state and local government web resources and services.